Stations météo

Publicité
Aurillac, France (7549): Température de l'air & dewpoint: 16.02.2017 07:00:00 - 22.02.2017 07:00:00 (CET)Aurillac, France (7549): Température de l'air 5cm: 16.02.2017 07:00:00 - 22.02.2017 07:00:00 (CET)Aurillac, France (7549): Température de l'air -20cm & Température de l'air -100cm: 16.02.2017 07:00:00 - 22.02.2017 07:00:00 (CET)Aurillac, France (7549): Vitesse du vent & gusts: 16.02.2017 07:00:00 - 22.02.2017 07:00:00 (CET)Aurillac, France (7549): Direction du vent: 16.02.2017 07:00:00 - 22.02.2017 07:00:00 (CET)Aurillac, France (7549): reduced air pressure: 16.02.2017 07:00:00 - 22.02.2017 07:00:00 (CET)Aurillac, France (7549): visibility: 16.02.2017 07:00:00 - 22.02.2017 07:00:00 (CET)Aurillac, France (7549): Ensoleillement: 16.02.2017 07:00:00 - 22.02.2017 07:00:00 (CET)Aurillac, France (7549): Quantités de précipitations: 16.02.2017 07:00:00 - 22.02.2017 07:00:00 (CET)
Date & Time tt [°C] td [°C] tt 5cm [°C] tt -20cm [°C] tt -100cm [°C] ff [km/h] ff [knt] fx [km/h] fx [knt] dd ppp [hPa] vv [km] sd [min] rr [mm]
22.02.2017 07:00:00 - - - - - - - - - - - - - -
22.02.2017 06:00:00 6,9 6,8 6,8 6,8 7,4 4 2 6 3 NW 1024,0 0,7 0 0,0
22.02.2017 05:00:00 6,8 6,7 6,8 6,8 7,4 2 1 6 3 W 1023,9 0,2 0 0,0
22.02.2017 04:00:00 6,9 6,8 6,8 6,8 7,4 3 1 5 3 WNW 1024,1 0,4 0 0,0
22.02.2017 03:00:00 6,9 6,8 6,7 6,8 7,4 3 2 7 4 W 1024,6 3,5 0 0,0
22.02.2017 02:00:00 7,0 6,9 6,8 6,8 7,4 4 2 7 4 W 1024,8 0,3 0 0,0
22.02.2017 01:00:00 7,2 7,1 - - - 5 3 13 7 WNW 1025,0 0,2 - -
22.02.2017 00:00:00 7,4 7,3 7,3 6,8 7,4 8 4 12 7 WNW 1025,3 2,1 0 0,0
21.02.2017 23:00:00 7,5 7,4 - - - 8 4 13 7 NW 1024,9 0,3 - 0,0
21.02.2017 22:00:00 7,7 7,6 7,7 6,7 7,4 6 4 13 7 NW 1025,1 0,5 0 0,0
21.02.2017 21:00:00 7,8 7,5 7,8 6,6 7,4 7 4 13 7 WNW 1025,2 7 0 0,0
21.02.2017 20:00:00 8,1 7,3 8,0 6,6 7,4 9 5 12 7 W 1025,1 20 0 0,0
21.02.2017 19:00:00 8,3 7,1 8,2 6,5 7,4 8 5 14 7 NW 1025,1 59 0 0,0
21.02.2017 18:00:00 8,8 7,1 8,7 6,5 7,4 8 4 14 7 NW 1024,8 60 0 0,0
21.02.2017 17:00:00 9,1 7,0 9,4 6,4 7,4 11 6 20 11 NNW 1024,6 60 0 0,0
21.02.2017 16:00:00 9,3 7,1 9,8 6,3 7,4 14 8 25 14 NW 1024,9 60 3 0,0
21.02.2017 15:00:00 9,5 7,8 9,2 6,3 7,4 13 7 19 10 NW 1025,1 20 2 0,0
21.02.2017 14:00:00 8,8 7,4 9,7 6,2 7,4 13 7 18 10 NW 1026,0 20 0 0,0
21.02.2017 13:00:00 8,1 7,3 9,6 6,2 7,4 9 5 15 8 NW 1026,9 4,9 0 0,0
21.02.2017 12:00:00 7,6 6,5 8,9 6,2 7,4 10 5 15 8 NW 1027,5 20 0 0,0
21.02.2017 11:00:00 6,7 6,4 7,0 6,2 7,4 8 5 13 7 NW 1027,9 2,5 0 0,0
21.02.2017 10:00:00 5,8 5,7 6,1 6,2 7,4 6 3 14 7 NW 1028,1 1,8 0 0,0
21.02.2017 09:00:00 5,4 5,3 5,3 6,2 7,4 4 2 6 3 WNW 1028,2 1,0 0 0,0
21.02.2017 08:00:00 5,0 4,9 5,0 6,3 7,4 4 2 9 5 WSW 1027,8 1,2 0 0,0
21.02.2017 07:00:00 4,9 4,8 5,0 6,3 7,4 5 3 10 5 WSW 1027,4 1,4 0 0,0
21.02.2017 06:00:00 4,9 4,8 5,0 6,3 7,4 7 4 12 7 W 1027,4 1,3 0 0,0
21.02.2017 05:00:00 5,0 4,9 - - - 5 3 8 4 WSW 1027,3 1,9 - 0,2
21.02.2017 04:00:00 4,7 4,6 4,9 6,3 7,4 4 2 7 4 WNW 1027,5 0,6 0 0,0
21.02.2017 03:00:00 4,7 4,6 - - - 5 3 8 4 WNW 1028,2 0,2 - 0,0
21.02.2017 02:00:00 4,5 4,4 4,6 6,3 7,4 5 3 13 7 NW 1028,5 0,2 0 0,0
21.02.2017 01:00:00 4,4 4,3 - - - 9 5 15 8 NW 1028,8 0,2 - -
21.02.2017 00:00:00 4,5 4,1 4,6 6,3 7,3 9 5 13 7 WNW 1028,8 1,7 0 0,0
20.02.2017 23:00:00 4,7 4,0 4,7 6,3 7,4 8 5 13 7 WNW 1028,8 3,5 0 0,0
20.02.2017 22:00:00 4,9 3,6 4,6 6,2 7,3 9 5 11 6 WNW 1028,8 9 0 0,0
20.02.2017 21:00:00 4,7 3,4 4,1 6,2 7,4 9 5 12 7 NW 1028,6 10 0 0,0
20.02.2017 20:00:00 4,6 2,8 2,5 6,1 7,4 6 3 13 7 NW 1028,5 12 0 0,0
20.02.2017 19:00:00 4,8 2,5 2,6 6,0 7,4 4 2 16 9 NW 1028,2 13 0 0,0
20.02.2017 18:00:00 5,6 2,9 - - - 13 7 26 14 WNW 1027,7 13 - 0,0
20.02.2017 17:00:00 7,0 3,2 7,7 5,9 7,3 18 10 26 14 WNW 1027,2 14 56 0,0
20.02.2017 16:00:00 8,7 2,9 12,8 5,8 7,4 16 9 29 16 WNW 1026,8 17 60 0,0
20.02.2017 15:00:00 9,1 3,3 13,4 5,8 7,3 17 9 28 15 W 1026,7 17 60 0,0
20.02.2017 14:00:00 9,6 2,4 - - - 15 8 26 14 WNW 1026,9 17 - 0,0
20.02.2017 13:00:00 8,8 1,9 12,9 5,8 7,3 12 6 23 12 WNW 1027,3 17 60 0,0
20.02.2017 12:00:00 7,7 1,3 12,8 5,9 7,3 16 9 24 13 WNW 1028,3 20 60 0,0
20.02.2017 11:00:00 5,2 2,2 10,5 5,9 7,3 7 4 11 6 WNW 1028,7 12 60 0,0
20.02.2017 10:00:00 3,1 0,5 1,0 6,0 7,3 3 2 6 3 SSW 1029,4 7 60 0,0
20.02.2017 09:00:00 -0,5 -1,8 -5,7 6,1 7,3 5 3 7 4 ESE 1030,3 5 51 0,0
20.02.2017 08:00:00 -2,7 -3,2 -7,6 6,2 7,3 6 3 8 4 E 1030,3 4,1 0 0,0
20.02.2017 07:00:00 -1,8 -2,1 -6,7 6,2 7,3 4 2 6 4 ESE 1029,8 2,7 0 0,0
20.02.2017 06:00:00 -2,1 -2,5 -6,5 6,3 7,3 5 3 7 4 ESE 1029,8 3,2 0 0,0
20.02.2017 05:00:00 -1,8 -2,2 -5,4 6,4 7,3 5 3 6 3 E 1029,5 2,7 0 0,0
20.02.2017 04:00:00 -1,4 -1,8 -5,2 6,4 7,3 6 3 7 4 E 1029,5 2,3 0 0,0
20.02.2017 03:00:00 -0,7 -1,1 -4,5 6,5 7,3 5 3 7 4 E 1029,8 4,7 0 0,0
20.02.2017 02:00:00 1,1 -0,4 -1,4 6,5 7,3 7 4 10 5 NE 1029,4 7 0 0,0
20.02.2017 01:00:00 1,7 -0,1 - - - 9 5 11 6 NNE 1029,1 15 - -
20.02.2017 00:00:00 1,9 0,6 -2,4 6,6 7,3 2 1 9 5 ENE 1029,2 13 0 0,0
19.02.2017 23:00:00 2,4 0,9 -3,0 6,6 7,3 3 1 6 3 NNE 1028,9 12 0 0,0
19.02.2017 22:00:00 2,9 0,6 -2,9 6,5 7,3 3 1 6 3 SSE 1028,4 13 0 0,0
19.02.2017 21:00:00 5,7 2,2 - - - 2 1 5 3 NNW 1027,7 17 - 0,0
19.02.2017 20:00:00 6,6 2,1 -0,3 6,4 7,3 5 3 11 6 WNW 1027,1 16 0 0,0
19.02.2017 19:00:00 7,7 2,2 2,3 6,3 7,3 5 3 13 7 W 1026,5 20 0 0,0
19.02.2017 18:00:00 9,6 2,2 - - - 9 5 18 10 WNW 1025,5 55 - 0,0
19.02.2017 17:00:00 10,6 2,7 11,3 6,1 7,3 12 7 22 12 WNW 1025,1 20 53 0,0
19.02.2017 16:00:00 11,6 2,9 12,9 6,0 7,3 15 8 25 14 WNW 1025,1 20 52 0,0
19.02.2017 15:00:00 12,2 3,4 14,0 6,0 7,3 19 10 28 15 WNW 1025,3 19 54 0,0
19.02.2017 14:00:00 11,9 3,6 12,5 6,0 7,3 11 6 24 13 WNW 1025,4 19 41 0,0
19.02.2017 13:00:00 11,1 3,1 13,6 6,0 7,2 8 5 18 10 WNW 1026,2 18 45 0,0
19.02.2017 12:00:00 10,6 3,4 - - - 8 4 16 9 NW 1027,1 18 - 0,0
19.02.2017 11:00:00 10,0 3,3 - - - 4 2 11 6 S 1027,0 17 - 0,0
19.02.2017 10:00:00 5,1 1,6 5,6 6,2 7,3 9 5 14 8 E 1028,5 18 60 0,0
19.02.2017 09:00:00 2,6 0,0 -1,8 6,3 7,3 5 3 14 8 E 1028,7 19 42 0,0
19.02.2017 08:00:00 -0,1 -1,4 -3,0 6,4 7,3 6 3 12 6 ENE 1028,8 18 0 0,0
19.02.2017 07:00:00 0,6 -1,3 - - - 9 5 13 7 E 1028,1 18 - -
19.02.2017 06:00:00 0,4 -1,4 -2,3 6,5 7,2 10 5 16 9 ESE 1028,2 19 0 0,0
19.02.2017 05:00:00 -0,2 -2,4 - - - 11 6 15 8 E 1028,1 19 - 0,0
19.02.2017 04:00:00 0,8 -1,8 -2,1 6,6 7,2 11 6 18 10 E 1027,1 19 0 0,0
19.02.2017 03:00:00 1,5 -1,9 -1,5 6,7 7,2 14 8 18 10 E 1026,7 46 0 0,0
19.02.2017 02:00:00 1,4 -2,7 - - - 11 6 16 9 E 1026,6 50 - 0,0
19.02.2017 01:00:00 1,4 -3,3 -2,1 6,8 7,2 9 5 14 7 E 1026,4 48 0 0,0
19.02.2017 00:00:00 1,5 -3,8 - - - 9 5 16 9 E 1026,1 45 - 0,0
18.02.2017 23:00:00 2,7 -3,6 -1,5 6,8 7,2 8 4 15 8 E 1025,5 20 0 0,0
18.02.2017 22:00:00 2,4 -3,7 -2,1 6,8 7,2 9 5 14 8 E 1025,1 20 0 0,0
18.02.2017 21:00:00 4,5 -4,0 -1,6 6,7 7,2 9 5 11 6 E 1023,9 49 0 0,0
18.02.2017 20:00:00 5,4 -4,2 -1,0 6,6 7,2 7 4 10 5 ENE 1023,1 60 0 0,0
18.02.2017 19:00:00 8,5 -8,1 0,3 6,5 7,2 4 2 5 3 SE 1021,9 16 10 0,0
18.02.2017 18:00:00 12,6 -8,0 7,7 6,4 7,2 3 2 10 5 SE 1020,3 17 60 0,0
18.02.2017 17:00:00 13,6 -8,4 17,6 6,3 7,2 6 3 15 8 SE 1019,5 60 60 0,0
18.02.2017 16:00:00 13,8 -7,6 19,3 6,2 7,2 9 5 18 10 S 1019,5 20 60 0,0
18.02.2017 15:00:00 14,3 -6,0 20,0 6,1 7,2 9 5 16 8 ESE 1019,5 20 60 0,0
18.02.2017 14:00:00 13,9 -3,0 19,9 6,2 7,2 4 2 10 6 ESE 1019,9 51 60 0,0
18.02.2017 13:00:00 13,2 -2,3 20,1 6,1 7,2 3 2 9 5 SE 1020,7 18 60 0,0
18.02.2017 12:00:00 11,7 -0,2 17,1 6,2 7,2 4 2 10 5 SSW 1022,0 20 60 0,0
18.02.2017 11:00:00 9,7 0,0 12,3 6,3 7,2 4 2 8 5 E 1022,6 19 60 0,0
18.02.2017 10:00:00 7,1 1,2 7,6 6,4 7,2 4 2 8 4 ESE 1023,5 18 60 0,0
18.02.2017 09:00:00 4,3 1,0 -1,7 6,4 7,2 5 3 8 4 SE 1024,2 20 49 0,0
18.02.2017 08:00:00 1,1 -1,1 -3,1 6,5 7,2 8 4 10 6 E 1024,8 37 1 0,0
18.02.2017 07:00:00 0,2 -0,9 -2,3 6,6 7,2 7 4 11 6 E 1024,9 12 0 0,0
18.02.2017 06:00:00 -0,3 -1,3 -2,0 6,6 7,2 9 5 10 5 E 1025,4 9 0 0,0
18.02.2017 05:00:00 0,2 -0,9 -2,6 6,7 7,2 7 4 9 5 E 1025,7 9 0 0,0
18.02.2017 04:00:00 0,9 -0,1 - - - 8 4 13 7 E 1025,9 10 - -
18.02.2017 03:00:00 1,1 -0,1 -2,0 6,8 7,2 10 5 13 7 ESE 1026,5 12 0 0,0
18.02.2017 02:00:00 1,3 0,4 -2,2 6,8 7,2 8 5 10 5 E 1026,7 11 0 0,0
18.02.2017 01:00:00 2,3 0,4 -1,1 6,9 7,1 8 4 11 6 E 1026,9 13 0 0,0
18.02.2017 00:00:00 3,1 0,8 -1,2 6,9 7,1 10 5 12 6 E 1026,8 16 0 0,0
17.02.2017 23:00:00 3,5 1,2 -0,1 6,9 7,1 8 5 12 6 ESE 1026,9 14 0 0,0
17.02.2017 22:00:00 4,1 1,5 -0,1 6,9 7,2 9 5 10 6 E 1027,0 14 0 0,0
17.02.2017 21:00:00 5,3 2,1 -0,3 6,8 7,1 4 2 8 5 E 1026,6 13 0 0,0
17.02.2017 20:00:00 8,1 2,5 1,7 6,7 7,2 5 3 10 6 WNW 1025,6 28 0 0,0
17.02.2017 19:00:00 10,2 2,5 - - - 8 4 13 7 N 1025,1 55 - -
17.02.2017 18:00:00 11,6 2,6 10,1 6,5 7,1 6 4 17 9 N 1024,6 60 54 0,0
17.02.2017 17:00:00 12,8 2,3 14,2 6,4 7,1 11 6 20 11 NNW 1024,6 56 60 0,0
17.02.2017 16:00:00 13,2 2,7 16,4 6,4 7,1 13 7 23 12 NNW 1024,9 19 60 0,0
17.02.2017 15:00:00 13,2 3,5 15,7 6,3 7,1 14 8 23 12 NW 1025,2 19 57 0,0
17.02.2017 14:00:00 13,4 4,3 - - - 11 6 22 12 WNW 1026,1 18 - 0,0
17.02.2017 13:00:00 12,5 5,2 - - - 9 5 15 8 WNW 1027,1 18 - -
17.02.2017 12:00:00 11,0 6,1 17,9 6,4 7,1 9 5 13 7 NW 1028,0 18 60 0,0
17.02.2017 11:00:00 9,9 4,7 11,9 6,4 7,1 0 0 5 3 N 1028,5 19 60 0,0
17.02.2017 10:00:00 6,3 3,3 5,7 6,5 7,1 2 1 7 4 E 1029,8 10 60 0,0
17.02.2017 09:00:00 3,3 2,0 -2,7 6,6 7,1 2 1 6 4 E 1030,7 10 58 0,0
17.02.2017 08:00:00 -0,3 -0,6 -3,3 6,7 7,1 6 4 11 6 E 1031,4 6 0 0,0
17.02.2017 07:00:00 0,4 0,1 -4,6 6,7 7,1 5 3 6 4 E 1031,2 3,5 0 0,0
17.02.2017 06:00:00 0,5 0,2 -4,0 6,8 7,1 5 3 6 4 E 1031,4 7 0 0,0
17.02.2017 05:00:00 0,8 0,5 -3,9 6,8 7,1 5 3 6 4 ESE 1031,7 11 0 0,0
17.02.2017 04:00:00 0,8 0,4 - - - 4 2 8 4 ESE 1032,1 0,7 - -
17.02.2017 03:00:00 1,6 0,9 -2,7 7,0 7,1 4 2 7 4 E 1032,2 14 0 0,0
17.02.2017 02:00:00 1,2 0,6 -1,3 7,0 7,1 8 4 9 5 E 1032,5 6 0 0,0
17.02.2017 01:00:00 2,3 1,7 - - - 5 3 8 4 E 1032,6 6 - -
17.02.2017 00:00:00 2,8 1,9 -1,1 7,0 7,1 6 3 8 4 E 1032,6 9 0 0,0
16.02.2017 23:00:00 3,4 2,7 -0,5 7,0 7,1 6 3 7 4 E 1032,6 9 0 0,0
16.02.2017 22:00:00 5,7 3,5 1,8 7,0 7,1 2 1 12 6 E 1031,9 24 0 0,0
16.02.2017 21:00:00 7,2 4,0 1,0 6,9 7,1 7 4 13 7 NNE 1031,5 31 0 0,0
16.02.2017 20:00:00 8,5 5,4 2,0 6,9 7,0 5 3 7 4 N 1031,0 47 0 0,0
16.02.2017 19:00:00 9,8 5,8 2,7 6,8 7,1 4 2 9 5 NW 1030,6 40 8 0,0
16.02.2017 18:00:00 12,3 5,0 10,5 6,7 7,0 5 3 10 6 NW 1029,4 60 44 0,0
16.02.2017 17:00:00 12,6 5,3 13,3 6,6 7,0 8 5 11 6 NW 1029,3 60 13 0,0
16.02.2017 16:00:00 13,3 5,0 16,4 6,5 7,0 6 3 14 8 WNW 1029,2 59 50 0,0
16.02.2017 15:00:00 13,4 4,5 17,3 6,5 7,0 0 0 11 6 N 1029,5 60 37 -
16.02.2017 14:00:00 13,1 4,5 17,3 6,5 7,0 6 3 16 8 SW 1030,2 60 45 0,0
16.02.2017 13:00:00 13,3 5,2 15,7 6,5 7,0 7 4 16 9 S 1030,8 20 56 0,0
16.02.2017 12:00:00 11,5 5,4 - - - 11 6 16 9 SE 1032,1 19 - 0,0
16.02.2017 11:00:00 9,7 5,5 - - - 5 3 11 6 ESE 1032,9 19 - 0,0
16.02.2017 10:00:00 6,3 3,8 - - - 4 2 9 5 E 1034,1 16 - -
16.02.2017 09:00:00 4,5 3,0 1,0 6,7 7,0 7 4 11 6 E 1034,5 18 44 0,0
16.02.2017 08:00:00 3,1 2,2 -0,4 6,7 7,0 7 4 14 7 ESE 1034,6 20 0 0,0
16.02.2017 07:00:00 3,5 2,3 -0,3 6,8 7,0 7 4 12 6 E 1034,2 18 0 0,0

tt = Température de l'air
td = dewpoint
tt 5cm = Température de l'air 5cm
tt -20cm = Température de l'air -20cm
tt -100cm = Température de l'air -100cm
ff = Vitesse du vent
fx = gusts
dd = Direction du vent
ppp = reduced air pressure
vv = visibility
sd = Ensoleillement
rr = Quantités de précipitations

stations d'obs. à proximité